Location: Sternwarte auf dem Internationalen Platz Vogelsang IP
(50.5721°N, 6.4398°E)
Time: 02:54:20
(UTC+01:00)

Vanguard 2 Rocket - Visible Passes

Search period start: 05 December 2025 00:00
Search period end: 15 December 2025 00:00
Orbit: 554 x 3287 km, 32.9° (Epoch: 04 December)

Date Brightness Start Highest point End Pass type
(mag) Time Alt. Az. Time Alt. Az. Time Alt. Az.
11 Dec 11.6 07:06:38 10° SSE 07:14:44 14° SE 07:21:59 10° ESE visible
13 Dec 11.4 07:04:55 10° S 07:16:46 20° SE 07:27:08 10° ESE visible
14 Dec 11.5 06:02:47 10° SSE 06:10:57 14° SE 06:18:40 10° ESE visible
